User: anonymous   Login
Location: Oshawa
(43.9000°N, 78.8670°W)
Time: 17:48:07
(UTC-04:00)
Language:

SPOT 5 - Orbit

View from above orbital plane
View from above orbital plane
View from above satellite
View from above satellite

Ground track
Ground track

The orbit data is extracted from the following two-line orbital elements,

1 27421U 02021A   15209.47328846  .00000082  00000-0  57559-4 0  9995
2 27421 098.5084 263.5842 0001215 094.0371 353.9332 14.20900343685996
Epoch (UTC): 28 July 2015 11:21:32
Eccentricity: 0.0001215
inclination: 98.5084°
perigee height: 821 km
apogee height: 823 km
right ascension of ascending node: 263.5842°
argument of perigee: 94.0371°
revolutions per day: 14.20900343
mean anomaly at epoch: 353.9332°
orbit number at epoch: 68599

The dashed part of the orbit path shows where the satellite is in the earth's shadow,  

DLR